Regional Weather Roundup
Issued by NWS

Home | Current Version | Previous Version | Graphics & Text | Print | Product List | Glossary On
Versions: 1 2 3 4 5 6 7 8 9 10 11 12 13 14 15 16 17 18 19 20 21 22 23 24 25 26 27 28 29 30 31 32 33 34 35 36 37 38 39 40 41 42 43 44 45 46 47 48 49 50
000
ASUS45 KBOU 291807
RWRCO

WEATHER ROUNDUP FOR COLORADO
NATIONAL WEATHER SERVICE DENVER/BOULDER CO
1200 PM MDT WED MAR 29 2017

NOTE: "FAIR" INDICATES FEW OR NO CLOUDS BELOW 12000 FEET WITH NO
SIGNIFICANT WEATHER AND/OR OBSTRUCTIONS TO VISIBILITY.

COZ001>005-013-030-031-291900-
...NORTHWEST COLORADO...

CITY           SKY/WX    TMP DP  RH WIND       PRES   REMARKS
CRAIG          PTSUNNY   46  31  55 MISG      30.18F
HAYDEN         CLOUDY    39  27  60 W7        30.18F
MEEKER         PTSUNNY   44  33  65 VRB6      30.18F
MOUNT WERNER   NOT AVBL
STEAMBOAT SPGS FAIR      40  30  66 CALM      30.16F
WALDEN         NOT AVBL
$$

COZ006>008-011-291900-
...WEST CENTRAL VALLEYS...

CITY           SKY/WX    TMP DP  RH WIND       PRES   REMARKS
GRAND JUNCTION FAIR      54  31  41 W7        30.14F
MONTROSE       FAIR      49  31  49 VRB6      30.15F
EAGLE          MOSUNNY   45  25  45 CALM      30.15F
RIFLE          FAIR      53  27  36 NW12      30.13F
DELTA          FAIR      56  27  32 SW9G18    30.13S
NUCLA          FAIR      54  27  35 CALM      30.16F
$$

COZ017>023-064>068-291900-
...SOUTHWEST COLORADO...

CITY           SKY/WX    TMP DP  RH WIND       PRES   REMARKS
DURANGO        FAIR      53  26  35 MISG      30.01F
CORTEZ         FAIR      55  27  34 N10G20    30.06F
PAGOSA SPRINGS FAIR      50  17  27 N10       30.03F
TELLURIDE      FAIR      37  25  60 W8        30.16S
WOLF CREEK PAS   N/A     23  23 100 N9G17     30.17S WCI  13
$$

COZ009-010-012-014-032>034-037-058>063-291900-
...CENTRAL COLORADO...

CITY           SKY/WX    TMP DP  RH WIND       PRES   REMARKS
ASPEN          FAIR      43  24  47 NW5       30.13F
BUENA VISTA    FAIR      47  17  31 NW24      30.07F
COPPER MTN     PTSUNNY   27  21  80 MISG      30.17S
BERTHOUD PASS  CLOUDY    18   7  62 N9G23     30.14F WCI   6
COTTONWOOD PAS FAIR      41  23  48 E3        30.11F
GUNNISON       FAIR      43  25  49 W9        30.10F
KREMMLING      FAIR      48  25  40 N6        30.14F
LEADVILLE      FAIR      32  16  51 NW10G20   30.12F WCI  24
MONARCH PASS     N/A     27  23  86 MISG      30.24S
SALIDA         FAIR      49  22  34 N14G23    30.13F
SUNLIGHT       FAIR      28  23  80 CALM      30.23S HAZE
WILKERSON PASS PTSUNNY  N/A N/A N/A NE3       30.14F
$$

COZ069>075-291900-
...SAN LUIS VALLEY/SANGRE DE CRISTO MOUNTAINS...

CITY           SKY/WX    TMP DP  RH WIND       PRES   REMARKS
ALAMOSA        FAIR      50  26  39 N24G36    30.02F
LA VETA PASS   NOT AVBL
SAGUACHE       CLOUDY    48  25  40 NW12G23   30.05F
$$

COZ035-036-038>040-291900-
...NORTHERN COLORADO FRONT RANGE...

CITY           SKY/WX    TMP DP  RH WIND       PRES   REMARKS
DENVER INTL AP PTSUNNY   45  37  73 N15       30.07F
DMNS CITY PARK   N/A     48  35  62 N7G14     30.07F
AURORA         PTSUNNY   43  42  95 N14G20    30.08F
FRONT RANGE AP CLOUDY    45  39  81 N17       30.09F
ERIE MUNI ARPT FAIR      49  37  63 N9G16     30.08F
BOULDER MUN AP FAIR      46  36  66 N6        30.08F
CENTENNIAL     PTSUNNY   42  36  79 N13       30.08F
BROOMFIELD     PTSUNNY   48  37  66 N9        30.09F
FORT COLLINS   FAIR      52  32  46 N16G23    30.08F
LONGMONT       FAIR      55  37  51 NE5       30.10F
$$

COZ041-046-047-076>085-087-088-291900-
...PIKES PEAK/PALMER DIVIDE AND SOUTHERN FOOTHILLS...

CITY           SKY/WX    TMP DP  RH WIND       PRES   REMARKS
COLO. SPRINGS  PTSUNNY   44  29  55 N29G39    30.05F
A. F. ACADEMY  PTSUNNY   41  32  70 N24G36    30.05F
SCHRIEVER AFB  PTSUNNY   40  32  71 N23G36    30.05F
ELLICOTT       MIX PCPN N/A N/A N/A N23G35    30.03F
FALCON         CLOUDY    38  32  79 N23G33    30.06F
FORT CARSON    MOSUNNY   47  30  51 N26G38    30.03F
LIMON          CLOUDY    37  36  96 N23G33    30.03F
MONUMENT HILL  CLOUDY    32  32 100 N22G28    30.08F WCI  19
TRINIDAD       CLOUDY    40  34  79 N20       30.05F
$$

COZ042>045-048>051-090-091-291900-
...NORTHEAST COLORADO...

CITY           SKY/WX    TMP DP  RH WIND       PRES   REMARKS
GREELEY ARPT   CLOUDY    51  35  54 N14       30.08F
AKRON          CLOUDY    42  38  85 N15       30.04F
BURLINGTON     CLOUDY    41  39  93 N25G33    29.97F
WRAY           CLOUDY    43  39  87 N20G26    30.02
STERLING       CLOUDY    45  37  76 N13       30.06F
HOLYOKE        CLOUDY    43  41  93 N13       30.04F
FORT MORGAN    CLOUDY    46  37  72 N10       30.07F
$$

COZ086-089-092>099-291900-
...SOUTHEAST COLORADO...

CITY           SKY/WX    TMP DP  RH WIND       PRES   REMARKS
PUEBLO         CLOUDY    48  36  63 N22G31    30.04F
LA JUNTA       CLOUDY    45  37  73 N22G29    30.02F
LAMAR          CLOUDY    45  38  76 N22G31    29.95F
SPRINGFIELD      N/A     40  37  89 N31G40    29.93S
$$



USA.gov is the U.S. government's official web portal to all federal, state and local government web resources and services.